Location: Newark
(48.6461°N, 4.3644°W)
Time: 14:37:45
(UTC+00:00)

S-56A Canister/Altair - Pass Details

Date: 22 January 2020
Orbit: 633 x 2500 km, 38.9° (Epoch: 28 February)

Event Time Altitude Azimuth Distance (km) Brightness Sun altitude
Rises 22:17:18 0° 237° (WSW) 3,419 - -50.8°
Reaches altitude 10° 22:20:28 10° 223° (SW) 2,275 - -51.2°
Maximum altitude 22:24:23 23° 172° (S) 1,424 - -51.7°
Drops below altitude 10° 22:27:54 10° 119° (ESE) 2,013 - -52.1°
Sets 22:30:31 0° 104° (ESE) 2,924 - -52.5°
